Powrót do katalogu

COSMOS 2154

AktywnyMilitariaPO
NORAD 21666·PAYLOAD·🇷🇺 Russia

Wystrzelony Aug 22, 1991 z Plesetsk Cosmodrome

Loading…

Następne Przeloty (najbliższe 24 godziny)

TLE

ŚwieżeSource: Space-Track

Epoka: Sep 14, 2026, 09:08 UTC

1 21666U 91059A   26257.38078347  .00000037  00000-0  24267-4 0  9992
2 21666  82.9063  43.1269 0024259 327.2648  61.2371 13.73544386757081

Śledź COSMOS 2154 w czasie rzeczywistym z AllMySat

Download on the App Store